HJ-2B (46479 NORAD) Tracking and Keplerian Element Data

This shows tracking and keplerian element data for the satellite.

Feedback or suggestion? Click here.




ElementValue
Catalog46479
NameHJ-2B
Epoch Orbit886
Epoch Day331.20625352
Epoch Year2020
RAAN46.2979
Inclination98.0428
Eccentricity0.0023266
Argument of Perigee177.2174
Mean Anonmoly182.9176
Mean Motion14.7645224
Decay Rate1.41E-06
L11 46479U 20067B 20331.20625352 .00000141 00000-0 27710-4 0 9996
L22 46479 98.0428 46.2979 0023266 177.2174 182.9176 14.76452240 8869

Live tracking and technical data element details for HJ-2B (NORAD 46479). HJ-2B can be tracked NOW for your location showing map with azimuth and elevation plus other details from your city location.

Track the satellite on the map from your city or location and see movement details for azimuth, elevation, latitude, longitude, range, height, and movement on the map or in text.







IsCatalogInMostPopularTable: catalog: 46479, numindb: 19
Update: records affected: 1



GetName: 46479 HJ-2B

Hit Count: updated at: Thu, 26 Nov 2020 23:54:43 GMT